Worcester, MA

9:01 PM EDT on April 23, 2017 (GMT -0400)
Worcester Regional

Weather History for KORH - September, 2011

Change the Weather History Date:

Saturday, September 3, 2011

  Actual Average Record
Temperature  
Mean Temperature 70 °F 66 °F  
Max Temperature 81 °F 74 °F 96 °F (1929)
Min Temperature 59 °F 57 °F 39 °F (1941)
Degree Days  
Heating Degree Days 0 2  
Month to date heating degree days 1 6  
Since 1 July heating degree days 7 45  
Cooling Degree Days 5 3  
Month to date cooling degree days 8 9  
Year to date cooling degree days 557 435  
Growing Degree Days 20 (Base 50)    
Moisture  
Dew Point 63 °F    
Average Humidity 80    
Maximum Humidity 97    
Minimum Humidity 62    
Precipitation  
Precipitation 0.00 in 0.11 in 3.39 in (1905)
Month to date precipitation 0.00 0.34  
Year to date precipitation 44.10 31.70  
Snow  
Snow 0.00 in 0.00 in 0.00 in (2002)
Month to date snowfall 0.0 0.0  
Since 1 July snowfall 0.0 0.0  
Since 1 September snowfall 0.0 0.0  
Snow Depth 0.00 in    
Sea Level Pressure  
Sea Level Pressure 29.95 in    
Wind  
Wind Speed 11 mph (WSW)    
Max Wind Speed 18 mph    
Max Gust Speed 23 mph    
Visibility 9 miles    
Events      
T = Trace of Precipitation, MM = Missing Value Source: NWS Daily Summary

Daily Weather History Graph

Daily Weather History Graph

Search for Another Location

Airport or City:

Trip Planner

Search our weather history database for the weather conditions in past years. The results will help you decide how hot, cold, wet, or windy it might be!

Date:

Astronomy

Sep. 03, 2011 Rise Set
Actual Time 6:14 AM EDT 7:18 PM EDT
Civil Twilight 5:45 AM EDT 7:47 PM EDT
Nautical Twilight 5:11 AM EDT 8:21 PM EDT
Astronomical Twilight 4:35 AM EDT 8:57 PM EDT
Moon 1:01 PM EDT (9/3) 10:31 PM EDT (9/3)
Length of Visible Light 14h 01m
Length of Day
13h 03m
Waxing Crescent, 38% of the Moon is Illuminated
Sep 3
Waxing Crescent
Sep 4
First Quarter
Sep 12
Full
Sep 20
Last Quarter
Sep 27
New

Hourly Weather History & Observations

Time (EDT) Temp. Heat Index Dew Point Humidity Pressure Visibility Wind Dir Wind Speed Gust Speed Precip Events Conditions
12:54 AM 60.1 °F - 57.0 °F 90% 30.03 in 10.0 mi SW 8.1 mph - N/A   Partly Cloudy
1:54 AM 60.8 °F - 57.2 °F 88% 30.02 in 10.0 mi SW 10.4 mph - N/A   Partly Cloudy
2:54 AM 60.1 °F - 57.0 °F 90% 29.99 in 10.0 mi SSW 9.2 mph - N/A   Partly Cloudy
3:54 AM 59.0 °F - 57.0 °F 93% 29.99 in 10.0 mi WSW 10.4 mph - N/A   Clear
4:54 AM 59.0 °F - 55.9 °F 90% 29.99 in 10.0 mi WSW 13.8 mph - N/A   Clear
5:54 AM 60.8 °F - 55.4 °F 82% 29.99 in 10.0 mi WSW 12.7 mph - N/A   Clear
6:54 AM 60.1 °F - 57.0 °F 90% 29.98 in 10.0 mi WSW 13.8 mph - N/A   Clear
7:54 AM 62.1 °F - 57.0 °F 84% 29.97 in 10.0 mi WSW 10.4 mph - N/A   Clear
8:54 AM 66.0 °F - 59.0 °F 78% 29.96 in 10.0 mi WSW 16.1 mph 21.9 mph N/A   Clear
9:54 AM 68.0 °F - 61.0 °F 78% 29.96 in 10.0 mi WSW 13.8 mph - N/A   Clear
10:54 AM 71.1 °F - 62.1 °F 73% 29.96 in 10.0 mi WSW 11.5 mph - N/A   Clear
11:54 AM 75.0 °F - 64.0 °F 69% 29.94 in 10.0 mi WSW 11.5 mph - N/A   Clear
12:54 PM 77.0 °F - 64.9 °F 66% 29.92 in 8.0 mi West 10.4 mph 18.4 mph N/A   Clear
1:54 PM 79.0 °F - 66.0 °F 64% 29.91 in 9.0 mi West 11.5 mph 19.6 mph N/A   Clear
2:54 PM 80.1 °F 82.3 °F 66.9 °F 64% 29.91 in 9.0 mi WSW 12.7 mph 18.4 mph N/A   Clear
3:54 PM 80.1 °F 82.9 °F 69.1 °F 69% 29.90 in 6.0 mi WSW 13.8 mph - N/A   Haze
4:54 PM 78.1 °F - 69.1 °F 74% 29.91 in 8.0 mi WSW 10.4 mph - N/A   Partly Cloudy
5:54 PM 78.1 °F - 69.1 °F 74% 29.91 in 10.0 mi WSW 8.1 mph - N/A   Clear
6:54 PM 75.2 °F - 69.8 °F 83% 29.93 in 10.0 mi SW 5.8 mph - N/A   Clear
7:54 PM 73.4 °F - 69.8 °F 88% 29.93 in 10.0 mi SW 6.9 mph - N/A   Clear
8:54 PM 72.0 °F - 68.0 °F 87% 29.93 in 10.0 mi WSW 6.9 mph - N/A   Clear
9:54 PM 70.0 °F - 68.0 °F 93% 29.93 in 8.0 mi WSW 9.2 mph - N/A   Clear
10:54 PM 69.8 °F - 66.2 °F 88% 29.93 in 8.0 mi WSW 9.2 mph - N/A   Clear
11:54 PM 68.0 °F - 66.0 °F 93% 29.93 in 7.0 mi WSW 9.2 mph - N/A   Clear